User: anonymous
Location: Fort Wayne
(41.1310°N, 85.1290°W)
Time: 00:11:42
(UTC-04:00)
Language:

Cosmos 1953 - Orbit

View from above orbital plane
View from above orbital plane
View from above satellite
View from above satellite

Ground track
Ground track

The orbit data is extracted from the following two-line orbital elements,

1 19210U 88050A   14104.83243726  .00003844  00000-0  29510-3 0  3903
2 19210 082.5181 075.0368 0012778 244.0522 115.9386 15.01463168403581
Epoch (UTC): 14 April 2014 19:58:42
Eccentricity: 0.0012778
inclination: 82.5181°
perigee height: 553 km
apogee height: 571 km
right ascension of ascending node: 75.0368°
argument of perigee: 244.0522°
revolutions per day: 15.01463168
mean anomaly at epoch: 115.9386°
orbit number at epoch: 40358

The dashed part of the orbit path shows where the satellite is in the earth's shadow,  

DLR